sat.trackr.live / text

‹ back to catalog

COSMOS 2510 (EKS 1)

NORAD 41032 · 2015-066A

PAYLOAD ACTIVE UNKNOWN

§ Identity

Operator
Country
CIS
Launch date
2015-11-17
Launch site
PLMSC
Launch vehicle
Mass (kg)
RCS (m²)
33.21

External: N2YO · Heavens-Above · Gunter

§ Orbital elements

Epoch: 2026-09-10T02:30:37.503936Z

Period
717.59 min
Inclination
63.4454°
Eccentricity
0.7192890
Mean motion
2.00671985 rev/d
Perigee alt
1,075.0 km
Apogee alt
39,270.3 km
Semi-major
26,550.8 km
B*
0.0000e+0
RAAN
334.4571°
Arg perigee
274.8701°
Mean anomaly
14.0011°
Rev number
7,917

§ Raw data

COSMOS 2510 (EKS 1)1 41032U 15066A   26253.10460074 -.00001250  00000+0  00000+0 0  99952 41032  63.4454 334.4571 7192890 274.8701  14.0011  2.00671985 79179

JSON: /api/v1/satellites/41032 · /tle

For live sub-satellite position, see the globe view (requires WebGL).

§ Visibility from observer

Set your observer location to see the next 7 days of passes ≥ 10°. The values pass through the URL so the page stays shareable.

No JS? Fill the form by hand. The geolocation button needs JavaScript.